| time (UTC) | temp F | wind direction | speed MPH | gust MPH | rain 1hr in | rain 24hr in | rain mn in | humidity % | barometer mb |
| 20260831234055 | 68 | 161 | 0.0 | 2.0 | 0.00 | 0.00 | 0.00 | 84 | 1019.2 |
| 20260831233554 | 68 | 161 | 0.0 | 3.0 | 0.00 | 0.00 | 0.00 | 83 | 1019.2 |
| 20260831233052 | 67 | 161 | 1.0 | 4.0 | 0.00 | 0.00 | 0.00 | 80 | 1019.1 |
| 20260831232551 | 67 | 122 | 2.0 | 6.0 | 0.00 | 0.00 | 0.00 | 77 | 1019.2 |
| 20260831232050 | 66 | 115 | 3.0 | 5.0 | 0.00 | 0.00 | 0.00 | 77 | 1019.1 |
| 20260831231551 | 66 | 135 | 3.0 | 5.0 | 0.00 | 0.00 | 0.00 | 79 | 1019.2 |
| 20260831231047 | 66 | 127 | 4.0 | 6.0 | 0.00 | 0.00 | 0.00 | 82 | 1019.2 |
| 20260831230545 | 65 | 113 | 3.0 | 4.0 | 0.00 | 0.00 | 0.00 | 87 | 1019.2 |
| 20260831230049 | 66 | 111 | 2.0 | 3.0 | 0.00 | 0.00 | 0.00 | 89 | 1019.3 |
| 20260831225544 | 67 | 146 | 1.0 | 3.0 | 0.00 | 0.00 | 0.00 | 91 | 1019.3 |
| 20260831225046 | 67 | 146 | 1.0 | 3.0 | 0.00 | 0.00 | 0.00 | 91 | 1019.3 |
| 20260831224544 | 67 | 153 | 2.0 | 3.0 | 0.00 | 0.00 | 0.00 | 91 | 1019.3 |
| 20260831224044 | 67 | 172 | 0.0 | 3.0 | 0.00 | 0.00 | 0.00 | 91 | 1019.2 |
| 20260831223544 | 68 | 172 | 1.0 | 5.0 | 0.00 | 0.00 | 0.00 | 90 | 1019.3 |
| 20260831223044 | 68 | 160 | 2.0 | 5.0 | 0.00 | 0.00 | 0.00 | 90 | 1019.2 |
| 20260831222542 | 67 | 148 | 2.0 | 5.0 | 0.00 | 0.00 | 0.00 | 90 | 1019.2 |
| 20260831222043 | 67 | 13 | 0.0 | 1.0 | 0.00 | 0.00 | 0.00 | 90 | 1019.2 |
| 20260831221554 | 67 | 13 | 0.0 | 1.0 | 0.00 | 0.00 | 0.00 | 90 | 1019.2 |
| 20260831221042 | 67 | 13 | 0.0 | 1.0 | 0.00 | 0.00 | 0.00 | 90 | 1019.1 |
| 20260831220541 | 67 | 13 | 0.0 | 1.0 | 0.00 | 0.00 | 0.00 | 90 | 1019.2 |
| 20260831220041 | 67 | 13 | 0.0 | 0.0 | 0.00 | 0.00 | 0.00 | 90 | 1019.1 |
| 20260831215542 | 67 | 13 | 0.0 | 2.0 | 0.00 | 0.00 | 0.00 | 90 | 1019.0 |
| 20260831215042 | 67 | 13 | 0.0 | 2.0 | 0.00 | 0.00 | 0.00 | 91 | 1018.9 |
| 20260831214552 | 68 | 13 | 1.0 | 2.0 | 0.00 | 0.00 | 0.00 | 91 | 1019.0 |
| 20260831214041 | 68 | 257 | 0.0 | 0.0 | 0.00 | 0.00 | 0.00 | 91 | 1018.9 |
| 20260831213541 | 68 | 257 | 0.0 | 1.0 | 0.00 | 0.00 | 0.00 | 90 | 1018.9 |
| 20260831213049 | 68 | 257 | 0.0 | 1.0 | 0.00 | 0.00 | 0.00 | 91 | 1019.0 |
| 20260831212540 | 68 | 257 | 0.0 | 1.0 | 0.00 | 0.00 | 0.00 | 91 | 1019.0 |
| 20260831212042 | 69 | 257 | 0.0 | 1.0 | 0.00 | 0.00 | 0.00 | 91 | 1018.9 |
| 20260831211541 | 69 | 257 | 0.0 | 1.0 | 0.00 | 0.00 | 0.00 | 91 | 1018.9 |
| 20260831211040 | 69 | 257 | 0.0 | 3.0 | 0.00 | 0.00 | 0.00 | 91 | 1018.8 |
| 20260831210539 | 69 | 257 | 1.0 | 3.0 | 0.00 | 0.00 | 0.00 | 91 | 1018.8 |
| 20260831210039 | 69 | 280 | 0.0 | 1.0 | 0.00 | 0.00 | 0.00 | 91 | 1018.7 |
| 20260831205539 | 69 | 280 | 0.0 | 1.0 | 0.00 | 0.00 | 0.00 | 90 | 1018.6 |
| 20260831205039 | 69 | 280 | 0.0 | 1.0 | 0.00 | 0.00 | 0.00 | 91 | 1018.6 |
| 20260831204543 | 69 | 280 | 0.0 | 1.0 | 0.00 | 0.00 | 0.00 | 90 | 1018.4 |
| 20260831204039 | 69 | 280 | 0.0 | 1.0 | 0.00 | 0.00 | 0.00 | 91 | 1018.3 |
| 20260831203538 | 69 | 280 | 0.0 | 2.0 | 0.00 | 0.00 | 0.00 | 90 | 1018.4 |
| 20260831203047 | 69 | 280 | 0.0 | 2.0 | 0.00 | 0.00 | 0.00 | 90 | 1018.3 |
| 20260831202540 | 69 | 280 | 0.0 | 0.0 | 0.00 | 0.00 | 0.00 | 90 | 1018.2 |
| 20260831202038 | 69 | 280 | 0.0 | 0.0 | 0.00 | 0.00 | 0.00 | 90 | 1018.1 |
| 20260831201538 | 69 | 280 | 0.0 | 0.0 | 0.00 | 0.00 | 0.00 | 90 | 1018.1 |
| 20260831201038 | 69 | 280 | 0.0 | 0.0 | 0.00 | 0.00 | 0.00 | 90 | 1018.0 |
| 20260831200538 | 69 | 262 | 0.0 | 0.0 | 0.00 | 0.00 | 0.00 | 89 | 1017.9 |
| 20260831200040 | 69 | 251 | 0.0 | 3.0 | 0.00 | 0.00 | 0.00 | 89 | 1017.9 |
| 20260831195538 | 69 | 251 | 1.0 | 4.0 | 0.00 | 0.00 | 0.00 | 89 | 1017.9 |
| 20260831195037 | 69 | 310 | 0.0 | 4.0 | 0.00 | 0.00 | 0.00 | 89 | 1017.9 |
| 20260831194538 | 69 | 271 | 2.0 | 4.0 | 0.00 | 0.00 | 0.00 | 89 | 1017.9 |
| 20260831194037 | 69 | 284 | 1.0 | 4.0 | 0.00 | 0.00 | 0.00 | 88 | 1017.9 |
| 20260831193537 | 69 | 284 | 1.0 | 4.0 | 0.00 | 0.00 | 0.00 | 88 | 1017.8 |
| 20260831193036 | 70 | 264 | 2.0 | 6.0 | 0.00 | 0.00 | 0.00 | 87 | 1017.8 |
| 20260831192535 | 70 | 277 | 3.0 | 6.0 | 0.00 | 0.00 | 0.00 | 86 | 1017.7 |
| 20260831192035 | 71 | 280 | 2.0 | 6.0 | 0.00 | 0.00 | 0.00 | 86 | 1017.8 |
| 20260831191549 | 71 | 272 | 2.0 | 7.0 | 0.00 | 0.00 | 0.00 | 86 | 1017.8 |
| 20260831191035 | 71 | 269 | 3.0 | 7.0 | 0.00 | 0.00 | 0.00 | 85 | 1017.8 |
| 20260831190535 | 72 | 294 | 2.0 | 7.0 | 0.00 | 0.00 | 0.00 | 84 | 1017.7 |
| 20260831190035 | 72 | 269 | 3.0 | 7.0 | 0.00 | 0.00 | 0.00 | 85 | 1017.7 |
| 20260831185535 | 72 | 285 | 3.0 | 7.0 | 0.00 | 0.00 | 0.00 | 85 | 1017.7 |
| 20260831185034 | 71 | 284 | 2.0 | 7.0 | 0.00 | 0.00 | 0.00 | 85 | 1017.7 |
| 20260831184535 | 71 | 259 | 4.0 | 9.0 | 0.00 | 0.00 | 0.00 | 85 | 1017.6 |
| 20260831184034 | 72 | 265 | 5.0 | 9.0 | 0.00 | 0.00 | 0.00 | 83 | 1017.5 |
| 20260831183534 | 72 | 260 | 4.0 | 8.0 | 0.00 | 0.00 | 0.00 | 83 | 1017.5 |
| 20260831183035 | 73 | 267 | 4.0 | 7.0 | 0.00 | 0.00 | 0.00 | 83 | 1017.5 |
| 20260831182534 | 73 | 263 | 3.0 | 7.0 | 0.00 | 0.00 | 0.00 | 82 | 1017.5 |
| 20260831182035 | 73 | 277 | 3.0 | 7.0 | 0.00 | 0.00 | 0.00 | 82 | 1017.5 |
| 20260831181533 | 73 | 281 | 3.0 | 7.0 | 0.00 | 0.00 | 0.00 | 81 | 1017.5 |
| 20260831181033 | 73 | 284 | 3.0 | 7.0 | 0.00 | 0.00 | 0.00 | 81 | 1017.5 |
| 20260831180533 | 73 | 286 | 2.0 | 8.0 | 0.00 | 0.00 | 0.00 | 82 | 1017.5 |
| 20260831180032 | 73 | 333 | 4.0 | 9.0 | 0.00 | 0.00 | 0.00 | 82 | 1017.6 |
| 20260831175532 | 73 | 269 | 6.0 | 9.0 | 0.00 | 0.00 | 0.00 | 81 | 1017.6 |
| 20260831175032 | 74 | 278 | 3.0 | 10.0 | 0.00 | 0.00 | 0.00 | 82 | 1017.6 |
| 20260831174532 | 74 | 243 | 4.0 | 10.0 | 0.00 | 0.00 | 0.00 | 81 | 1017.5 |
| 20260831174036 | 74 | 231 | 4.0 | 9.0 | 0.00 | 0.00 | 0.00 | 81 | 1017.4 |
| 20260831173532 | 74 | 229 | 4.0 | 9.0 | 0.00 | 0.00 | 0.00 | 82 | 1017.4 |
| 20260831173031 | 73 | 313 | 5.0 | 9.0 | 0.00 | 0.00 | 0.00 | 81 | 1017.3 |
| 20260831172530 | 73 | 236 | 4.0 | 10.0 | 0.00 | 0.00 | 0.00 | 81 | 1017.3 |
| 20260831172030 | 74 | 271 | 6.0 | 10.0 | 0.00 | 0.00 | 0.00 | 80 | 1017.4 |
| 20260831171531 | 74 | 338 | 2.0 | 8.0 | 0.00 | 0.00 | 0.00 | 80 | 1017.4 |
| 20260831171030 | 74 | 292 | 4.0 | 12.0 | 0.00 | 0.00 | 0.00 | 80 | 1017.5 |
| 20260831170531 | 73 | 252 | 6.0 | 12.0 | 0.00 | 0.00 | 0.00 | 80 | 1017.5 |
| 20260831170030 | 74 | 298 | 6.0 | 10.0 | 0.00 | 0.00 | 0.00 | 80 | 1017.4 |
| 20260831165529 | 74 | 298 | 5.0 | 10.0 | 0.00 | 0.00 | 0.00 | 80 | 1017.4 |
| 20260831165029 | 73 | 238 | 4.0 | 11.0 | 0.00 | 0.00 | 0.00 | 81 | 1017.5 |
| 20260831164541 | 73 | 269 | 7.0 | 13.0 | 0.00 | 0.00 | 0.00 | 80 | 1017.5 |
| 20260831164030 | 74 | 300 | 6.0 | 13.0 | 0.00 | 0.00 | 0.00 | 80 | 1017.4 |
| 20260831163529 | 74 | 278 | 7.0 | 13.0 | 0.00 | 0.00 | 0.00 | 79 | 1017.5 |
| 20260831163031 | 74 | 283 | 3.0 | 10.0 | 0.00 | 0.00 | 0.00 | 80 | 1017.5 |
| 20260831162531 | 74 | 276 | 3.0 | 10.0 | 0.00 | 0.00 | 0.00 | 80 | 1017.5 |
| 20260831162029 | 73 | 255 | 4.0 | 11.0 | 0.00 | 0.00 | 0.00 | 80 | 1017.4 |
| 20260831161527 | 74 | 286 | 7.0 | 11.0 | 0.00 | 0.00 | 0.00 | 79 | 1017.4 |
| 20260831161027 | 74 | 236 | 5.0 | 11.0 | 0.00 | 0.00 | 0.00 | 79 | 1017.5 |
| 20260831160528 | 74 | 322 | 7.0 | 10.0 | 0.00 | 0.00 | 0.00 | 79 | 1017.5 |
| 20260831160031 | 74 | 257 | 6.0 | 12.0 | 0.00 | 0.00 | 0.00 | 79 | 1017.5 |
| 20260831155527 | 74 | 262 | 7.0 | 12.0 | 0.00 | 0.00 | 0.00 | 78 | 1017.5 |
| 20260831155029 | 74 | 269 | 4.0 | 13.0 | 0.00 | 0.00 | 0.00 | 78 | 1017.5 |
| 20260831154526 | 74 | 279 | 8.0 | 13.0 | 0.00 | 0.00 | 0.00 | 77 | 1017.5 |
| 20260831154027 | 75 | 246 | 6.0 | 12.0 | 0.00 | 0.00 | 0.00 | 76 | 1017.4 |
| 20260831153525 | 75 | 265 | 5.0 | 11.0 | 0.00 | 0.00 | 0.00 | 77 | 1017.4 |
| 20260831153025 | 75 | 9 | 6.0 | 11.0 | 0.00 | 0.00 | 0.00 | 77 | 1017.5 |
| 20260831152524 | 75 | 288 | 4.0 | 10.0 | 0.00 | 0.00 | 0.00 | 78 | 1017.4 |
| 20260831152026 | 74 | 275 | 8.0 | 10.0 | 0.00 | 0.00 | 0.00 | 77 | 1017.5 |
| 20260831151523 | 74 | 277 | 3.0 | 10.0 | 0.00 | 0.00 | 0.00 | 78 | 1017.6 |
| 20260831151023 | 74 | 248 | 6.0 | 10.0 | 0.00 | 0.00 | 0.00 | 78 | 1017.7 |
| 20260831150524 | 74 | 182 | 4.0 | 12.0 | 0.00 | 0.00 | 0.00 | 78 | 1017.7 |
| 20260831150025 | 75 | 275 | 5.0 | 12.0 | 0.00 | 0.00 | 0.00 | 77 | 1017.7 |
| 20260831145523 | 74 | 253 | 7.0 | 12.0 | 0.00 | 0.00 | 0.00 | 79 | 1017.7 |
| 20260831145026 | 74 | 265 | 7.0 | 12.0 | 0.00 | 0.00 | 0.00 | 78 | 1017.8 |
| 20260831144522 | 74 | 236 | 7.0 | 12.0 | 0.00 | 0.00 | 0.00 | 77 | 1017.7 |
| 20260831144022 | 74 | 292 | 5.0 | 12.0 | 0.00 | 0.00 | 0.00 | 78 | 1017.7 |
| 20260831143522 | 74 | 184 | 6.0 | 11.0 | 0.00 | 0.00 | 0.00 | 77 | 1017.7 |
| 20260831143021 | 74 | 250 | 5.0 | 10.0 | 0.00 | 0.00 | 0.00 | 78 | 1017.8 |
| 20260831142520 | 74 | 274 | 3.0 | 11.0 | 0.00 | 0.00 | 0.00 | 78 | 1017.8 |
| 20260831142020 | 74 | 238 | 7.0 | 11.0 | 0.00 | 0.00 | 0.00 | 78 | 1017.9 |
| 20260831141521 | 73 | 257 | 4.0 | 11.0 | 0.00 | 0.00 | 0.00 | 78 | 1017.9 |
| 20260831141018 | 74 | 294 | 4.0 | 11.0 | 0.00 | 0.00 | 0.00 | 77 | 1017.9 |
| 20260831140517 | 74 | 271 | 7.0 | 12.0 | 0.00 | 0.00 | 0.00 | 78 | 1018.0 |
| 20260831140017 | 73 | 274 | 8.0 | 12.0 | 0.00 | 0.00 | 0.00 | 78 | 1018.0 |
| 20260831135517 | 73 | 293 | 4.0 | 12.0 | 0.00 | 0.00 | 0.00 | 79 | 1017.9 |
| 20260831135018 | 74 | 286 | 5.0 | 10.0 | 0.00 | 0.00 | 0.00 | 79 | 1018.1 |
| 20260831134519 | 73 | 322 | 4.0 | 10.0 | 0.00 | 0.00 | 0.00 | 78 | 1018.2 |
| 20260831134016 | 73 | 318 | 4.0 | 13.0 | 0.00 | 0.00 | 0.00 | 79 | 1018.3 |
| 20260831133517 | 74 | 242 | 7.0 | 13.0 | 0.00 | 0.00 | 0.00 | 79 | 1018.3 |
| 20260831133024 | 73 | 264 | 8.0 | 13.0 | 0.00 | 0.00 | 0.00 | 79 | 1018.2 |
| 20260831132515 | 74 | 271 | 7.0 | 11.0 | 0.00 | 0.00 | 0.00 | 79 | 1018.1 |
| 20260831132017 | 73 | 233 | 6.0 | 11.0 | 0.00 | 0.00 | 0.00 | 81 | 1018.0 |
| 20260831131514 | 73 | 262 | 5.0 | 10.0 | 0.00 | 0.00 | 0.00 | 81 | 1018.0 |
| 20260831131014 | 73 | 300 | 3.0 | 12.0 | 0.00 | 0.00 | 0.00 | 82 | 1018.1 |
| 20260831130513 | 72 | 275 | 4.0 | 12.0 | 0.00 | 0.00 | 0.00 | 82 | 1018.2 |
| 20260831130016 | 73 | 259 | 6.0 | 11.0 | 0.00 | 0.00 | 0.00 | 81 | 1018.3 |
| 20260831125513 | 73 | 280 | 6.0 | 11.0 | 0.00 | 0.00 | 0.00 | 82 | 1018.3 |
| 20260831125012 | 73 | 261 | 6.0 | 11.0 | 0.00 | 0.00 | 0.00 | 82 | 1018.5 |
| 20260831124534 | 73 | 206 | 5.0 | 10.0 | 0.00 | 0.00 | 0.00 | 82 | 1018.4 |
| 20260831124015 | 72 | 261 | 6.0 | 10.0 | 0.00 | 0.00 | 0.00 | 83 | 1018.5 |
| 20260831123510 | 72 | 247 | 5.0 | 11.0 | 0.00 | 0.00 | 0.00 | 83 | 1018.5 |
| 20260831123010 | 72 | 252 | 5.0 | 11.0 | 0.00 | 0.00 | 0.00 | 83 | 1018.5 |
| 20260831122512 | 72 | 222 | 3.0 | 10.0 | 0.00 | 0.00 | 0.00 | 83 | 1018.6 |
| 20260831122009 | 72 | 265 | 3.0 | 11.0 | 0.00 | 0.00 | 0.00 | 83 | 1018.6 |
| 20260831121510 | 72 | 259 | 6.0 | 11.0 | 0.00 | 0.00 | 0.00 | 82 | 1018.6 |
| 20260831121012 | 73 | 316 | 6.0 | 10.0 | 0.00 | 0.00 | 0.00 | 83 | 1018.7 |
| 20260831120509 | 72 | 286 | 4.0 | 11.0 | 0.00 | 0.00 | 0.00 | 82 | 1018.7 |
| 20260831120010 | 72 | 255 | 4.0 | 11.0 | 0.00 | 0.00 | 0.00 | 82 | 1018.8 |
| 20260831115506 | 72 | 261 | 6.0 | 10.0 | 0.00 | 0.00 | 0.00 | 83 | 1018.7 |
| 20260831115006 | 72 | 276 | 5.0 | 11.0 | 0.00 | 0.00 | 0.00 | 83 | 1018.7 |
| 20260831114505 | 72 | 272 | 6.0 | 11.0 | 0.00 | 0.00 | 0.00 | 83 | 1018.8 |
| 20260831114004 | 72 | 290 | 4.0 | 10.0 | 0.00 | 0.00 | 0.00 | 84 | 1018.7 |
| 20260831113503 | 72 | 277 | 5.0 | 9.0 | 0.00 | 0.00 | 0.00 | 84 | 1018.8 |
| 20260831113005 | 72 | 264 | 4.0 | 9.0 | 0.00 | 0.00 | 0.00 | 84 | 1018.8 |
| 20260831112501 | 71 | 271 | 3.0 | 10.0 | 0.00 | 0.00 | 0.00 | 84 | 1018.9 |
| 20260831112000 | 71 | 328 | 4.0 | 10.0 | 0.00 | 0.00 | 0.00 | 84 | 1018.9 |
| 20260831111622 | 71 | 273 | 3.0 | 10.0 | 0.00 | 0.00 | 0.00 | 84 | 1018.9 |
| 20260831111101 | 72 | 306 | 5.0 | 10.0 | 0.00 | 0.00 | 0.00 | 83 | 1019.0 |
| 20260831110559 | 71 | 331 | 3.0 | 10.0 | 0.00 | 0.00 | 0.00 | 83 | 1018.9 |
| 20260831110059 | 71 | 271 | 5.0 | 10.0 | 0.00 | 0.00 | 0.00 | 83 | 1018.9 |
| 20260831105557 | 71 | 269 | 6.0 | 10.0 | 0.00 | 0.00 | 0.00 | 83 | 1018.9 |
| 20260831105057 | 71 | 269 | 4.0 | 9.0 | 0.00 | 0.00 | 0.00 | 82 | 1018.9 |
| 20260831104607 | 71 | 249 | 4.0 | 9.0 | 0.00 | 0.00 | 0.00 | 83 | 1018.9 |
| 20260831104056 | 70 | 271 | 4.0 | 8.0 | 0.00 | 0.00 | 0.00 | 83 | 1018.8 |
| 20260831103557 | 70 | 279 | 2.0 | 8.0 | 0.00 | 0.00 | 0.00 | 83 | 1018.9 |
| 20260831103103 | 70 | 268 | 5.0 | 8.0 | 0.00 | 0.00 | 0.00 | 83 | 1018.9 |
| 20260831102552 | 70 | 290 | 2.0 | 8.0 | 0.00 | 0.00 | 0.00 | 83 | 1019.0 |
| 20260831102051 | 70 | 284 | 2.0 | 9.0 | 0.00 | 0.00 | 0.00 | 83 | 1018.9 |
| 20260831101556 | 71 | 261 | 4.0 | 9.0 | 0.00 | 0.00 | 0.00 | 83 | 1018.9 |
| 20260831101051 | 70 | 311 | 2.0 | 11.0 | 0.00 | 0.00 | 0.00 | 83 | 1018.9 |
| 20260831100550 | 70 | 261 | 7.0 | 12.0 | 0.00 | 0.00 | 0.00 | 82 | 1018.8 |
| 20260831100049 | 71 | 294 | 4.0 | 9.0 | 0.00 | 0.00 | 0.00 | 80 | 1018.7 |
| 20260831095548 | 71 | 277 | 5.0 | 9.0 | 0.00 | 0.00 | 0.00 | 79 | 1018.7 |
| 20260831095048 | 71 | 355 | 0.0 | 7.0 | 0.00 | 0.00 | 0.00 | 79 | 1018.6 |
| 20260831094604 | 70 | 286 | 3.0 | 7.0 | 0.00 | 0.00 | 0.00 | 79 | 1018.6 |
| 20260831094048 | 70 | 270 | 4.0 | 5.0 | 0.00 | 0.00 | 0.00 | 78 | 1018.6 |
| 20260831093547 | 70 | 329 | 0.0 | 5.0 | 0.00 | 0.00 | 0.00 | 80 | 1018.6 |
| 20260831093047 | 70 | 329 | 3.0 | 5.0 | 0.00 | 0.00 | 0.00 | 79 | 1018.5 |
| 20260831092543 | 70 | 286 | 4.0 | 7.0 | 0.00 | 0.00 | 0.00 | 78 | 1018.6 |
| 20260831092041 | 71 | 242 | 4.0 | 7.0 | 0.00 | 0.00 | 0.00 | 77 | 1018.6 |
| 20260831091540 | 71 | 22 | 1.0 | 2.0 | 0.00 | 0.00 | 0.00 | 77 | 1018.5 |
| 20260831091038 | 71 | 22 | 0.0 | 2.0 | 0.00 | 0.00 | 0.00 | 79 | 1018.5 |
| 20260831090537 | 71 | 22 | 0.0 | 2.0 | 0.00 | 0.00 | 0.00 | 79 | 1018.5 |
| 20260831090036 | 70 | 22 | 0.0 | 3.0 | 0.00 | 0.00 | 0.00 | 81 | 1018.6 |
| 20260831085537 | 70 | 321 | 1.0 | 3.0 | 0.00 | 0.00 | 0.00 | 80 | 1018.6 |
| 20260831085033 | 69 | 68 | 1.0 | 3.0 | 0.00 | 0.00 | 0.00 | 80 | 1018.5 |
| 20260831084534 | 69 | 67 | 1.0 | 3.0 | 0.00 | 0.00 | 0.00 | 80 | 1018.5 |
| 20260831084030 | 69 | 90 | 2.0 | 4.0 | 0.00 | 0.00 | 0.00 | 80 | 1018.5 |
| 20260831083528 | 68 | 98 | 2.0 | 6.0 | 0.00 | 0.00 | 0.00 | 79 | 1018.5 |
| 20260831083040 | 67 | 125 | 2.0 | 7.0 | 0.00 | 0.00 | 0.00 | 79 | 1018.4 |
| 20260831082525 | 67 | 126 | 4.0 | 7.0 | 0.00 | 0.00 | 0.00 | 79 | 1018.4 |
| 20260831082024 | 66 | 115 | 5.0 | 8.0 | 0.00 | 0.00 | 0.00 | 79 | 1018.3 |
| 20260831081530 | 66 | 121 | 5.0 | 8.0 | 0.00 | 0.00 | 0.00 | 79 | 1018.2 |
| 20260831081026 | 65 | 98 | 5.0 | 8.0 | 0.00 | 0.00 | 0.00 | 78 | 1018.3 |
| 20260831080519 | 65 | 106 | 5.0 | 8.0 | 0.00 | 0.00 | 0.00 | 79 | 1018.2 |
| 20260831080024 | 65 | 119 | 5.0 | 9.0 | 0.00 | 0.00 | 0.00 | 79 | 1018.1 |
| 20260831075516 | 64 | 105 | 7.0 | 9.0 | 0.00 | 0.00 | 0.00 | 79 | 1018.1 |
| 20260831075015 | 64 | 121 | 7.0 | 9.0 | 0.00 | 0.00 | 0.00 | 81 | 1018.1 |
| 20260831074517 | 64 | 108 | 7.0 | 9.0 | 0.00 | 0.00 | 0.00 | 82 | 1017.9 |
| 20260831074015 | 63 | 118 | 6.0 | 10.0 | 0.00 | 0.00 | 0.00 | 83 | 1018.0 |
| 20260831073511 | 63 | 114 | 7.0 | 10.0 | 0.00 | 0.00 | 0.00 | 83 | 1017.9 |
| 20260831073010 | 63 | 113 | 7.0 | 10.0 | 0.00 | 0.00 | 0.00 | 83 | 1017.9 |
| 20260831072508 | 63 | 105 | 7.0 | 11.0 | 0.00 | 0.00 | 0.00 | 83 | 1017.9 |
| 20260831072009 | 63 | 119 | 7.0 | 10.0 | 0.00 | 0.00 | 0.00 | 83 | 1017.8 |
| 20260831071522 | 63 | 117 | 8.0 | 10.0 | 0.00 | 0.00 | 0.00 | 84 | 1017.6 |
| 20260831071006 | 63 | 109 | 6.0 | 10.0 | 0.00 | 0.00 | 0.00 | 84 | 1017.6 |
| 20260831070507 | 63 | 115 | 6.0 | 10.0 | 0.00 | 0.00 | 0.00 | 83 | 1017.6 |
| 20260831070008 | 63 | 107 | 7.0 | 10.0 | 0.00 | 0.00 | 0.00 | 83 | 1017.5 |
| 20260831065505 | 63 | 121 | 7.0 | 13.0 | 0.00 | 0.00 | 0.00 | 83 | 1017.4 |
| 20260831065006 | 63 | 103 | 8.0 | 13.0 | 0.00 | 0.00 | 0.00 | 83 | 1017.5 |
| 20260831064503 | 63 | 106 | 9.0 | 13.0 | 0.00 | 0.00 | 0.00 | 84 | 1017.6 |
| 20260831064001 | 63 | 119 | 8.0 | 11.0 | 0.00 | 0.00 | 0.00 | 84 | 1017.5 |
| 20260831063502 | 63 | 117 | 8.0 | 11.0 | 0.00 | 0.00 | 0.00 | 84 | 1017.6 |
| 20260831063001 | 63 | 125 | 7.0 | 11.0 | 0.00 | 0.00 | 0.00 | 84 | 1017.6 |
| 20260831062600 | 63 | 123 | 8.0 | 11.0 | 0.00 | 0.00 | 0.00 | 84 | 1017.6 |
| 20260831062059 | 63 | 115 | 7.0 | 10.0 | 0.00 | 0.00 | 0.00 | 85 | 1017.6 |
| 20260831061604 | 63 | 121 | 7.0 | 9.0 | 0.00 | 0.00 | 0.00 | 85 | 1017.5 |
| 20260831061058 | 63 | 114 | 6.0 | 9.0 | 0.00 | 0.00 | 0.00 | 85 | 1017.4 |
| 20260831060559 | 63 | 107 | 7.0 | 10.0 | 0.00 | 0.00 | 0.00 | 85 | 1017.4 |
| 20260831060057 | 63 | 102 | 7.0 | 11.0 | 0.00 | 0.00 | 0.00 | 85 | 1017.4 |
| 20260831055556 | 63 | 126 | 9.0 | 11.0 | 0.00 | 0.00 | 0.00 | 85 | 1017.4 |
| 20260831055055 | 63 | 117 | 8.0 | 10.0 | 0.00 | 0.00 | 0.00 | 85 | 1017.5 |
| 20260831054554 | 64 | 114 | 8.0 | 10.0 | 0.00 | 0.00 | 0.00 | 85 | 1017.5 |
| 20260831054053 | 64 | 113 | 8.0 | 10.0 | 0.00 | 0.00 | 0.00 | 85 | 1017.6 |
| 20260831053552 | 64 | 115 | 8.0 | 10.0 | 0.00 | 0.00 | 0.00 | 85 | 1017.6 |
| 20260831053051 | 64 | 112 | 7.0 | 11.0 | 0.00 | 0.00 | 0.00 | 85 | 1017.6 |
| 20260831052550 | 65 | 122 | 8.0 | 11.0 | 0.00 | 0.00 | 0.00 | 85 | 1017.5 |
| 20260831052049 | 65 | 113 | 6.0 | 8.0 | 0.00 | 0.00 | 0.00 | 85 | 1017.6 |
| 20260831051549 | 65 | 105 | 4.0 | 7.0 | 0.00 | 0.00 | 0.00 | 86 | 1017.7 |
| 20260831051049 | 65 | 117 | 3.0 | 8.0 | 0.00 | 0.00 | 0.00 | 85 | 1017.6 |
| 20260831050549 | 65 | 110 | 4.0 | 8.0 | 0.00 | 0.00 | 0.00 | 85 | 1017.6 |
| 20260831045548 | 65 | 109 | 5.0 | 8.0 | 0.00 | 0.00 | 0.00 | 84 | 1017.7 |
| 20260831045047 | 65 | 120 | 6.0 | 9.0 | 0.00 | 0.00 | 0.00 | 84 | 1017.6 |
| 20260831044602 | 65 | 110 | 6.0 | 9.0 | 0.00 | 0.00 | 0.00 | 83 | 1017.8 |
| 20260831044046 | 66 | 110 | 6.0 | 8.0 | 0.00 | 0.00 | 0.00 | 83 | 1017.8 |
| 20260831043546 | 66 | 141 | 4.0 | 9.0 | 0.00 | 0.00 | 0.00 | 83 | 1017.9 |
| 20260831043046 | 66 | 108 | 5.0 | 10.0 | 0.00 | 0.00 | 0.00 | 83 | 1017.9 |
| 20260831042545 | 66 | 94 | 6.0 | 9.0 | 0.00 | 0.00 | 0.00 | 83 | 1018.1 |
| 20260831042045 | 66 | 113 | 4.0 | 8.0 | 0.00 | 0.00 | 0.00 | 83 | 1018.1 |
| 20260831041548 | 66 | 112 | 6.0 | 8.0 | 0.00 | 0.00 | 0.00 | 83 | 1018.1 |
| 20260831041044 | 66 | 123 | 6.0 | 8.0 | 0.00 | 0.00 | 0.00 | 83 | 1018.2 |
| 20260831040544 | 66 | 121 | 3.0 | 8.0 | 0.00 | 0.00 | 0.00 | 84 | 1018.2 |
| 20260831040044 | 66 | 114 | 5.0 | 8.0 | 0.00 | 0.00 | 0.00 | 83 | 1018.3 |
| 20260831035543 | 66 | 111 | 4.0 | 8.0 | 0.00 | 0.00 | 0.00 | 83 | 1018.4 |
| 20260831035043 | 65 | 119 | 5.0 | 8.0 | 0.00 | 0.00 | 0.00 | 83 | 1018.4 |
| 20260831034543 | 65 | 115 | 6.0 | 8.0 | 0.00 | 0.00 | 0.00 | 83 | 1018.3 |
| 20260831034043 | 65 | 131 | 6.0 | 8.0 | 0.00 | 0.00 | 0.00 | 83 | 1018.3 |
| 20260831033543 | 65 | 125 | 6.0 | 9.0 | 0.00 | 0.00 | 0.00 | 83 | 1018.1 |
| 20260831033043 | 65 | 110 | 6.0 | 10.0 | 0.00 | 0.00 | 0.00 | 83 | 1018.1 |
| 20260831032546 | 65 | 117 | 7.0 | 10.0 | 0.00 | 0.00 | 0.00 | 82 | 1018.1 |
| 20260831032042 | 65 | 126 | 7.0 | 9.0 | 0.00 | 0.00 | 0.00 | 83 | 1018.1 |
| 20260831031546 | 65 | 102 | 6.0 | 8.0 | 0.00 | 0.00 | 0.00 | 83 | 1018.1 |
| 20260831031041 | 65 | 117 | 4.0 | 9.0 | 0.00 | 0.00 | 0.00 | 83 | 1018.2 |
| 20260831030544 | 65 | 119 | 4.0 | 9.0 | 0.00 | 0.00 | 0.00 | 83 | 1018.1 |
| 20260831030041 | 65 | 124 | 6.0 | 10.0 | 0.00 | 0.00 | 0.00 | 83 | 1018.2 |
| 20260831025540 | 65 | 120 | 7.0 | 10.0 | 0.00 | 0.00 | 0.00 | 83 | 1018.2 |
| 20260831025040 | 65 | 111 | 7.0 | 10.0 | 0.00 | 0.00 | 0.00 | 83 | 1018.3 |
| 20260831024606 | 65 | 108 | 6.0 | 10.0 | 0.00 | 0.00 | 0.00 | 83 | 1018.2 |
| 20260831024039 | 65 | 105 | 7.0 | 9.0 | 0.00 | 0.00 | 0.00 | 83 | 1018.2 |
| 20260831023539 | 65 | 105 | 7.0 | 10.0 | 0.00 | 0.00 | 0.00 | 83 | 1018.2 |
| 20260831023039 | 65 | 117 | 7.0 | 12.0 | 0.00 | 0.00 | 0.00 | 83 | 1018.2 |
| 20260831022537 | 65 | 113 | 8.0 | 11.0 | 0.00 | 0.00 | 0.00 | 82 | 1018.2 |
| 20260831022037 | 65 | 126 | 7.0 | 9.0 | 0.00 | 0.00 | 0.00 | 83 | 1018.3 |
| 20260831021537 | 65 | 122 | 5.0 | 9.0 | 0.00 | 0.00 | 0.00 | 83 | 1018.3 |
| 20260831021037 | 65 | 119 | 6.0 | 9.0 | 0.00 | 0.00 | 0.00 | 82 | 1018.2 |
| 20260831020539 | 65 | 101 | 6.0 | 9.0 | 0.00 | 0.00 | 0.00 | 82 | 1018.2 |
| 20260831020059 | 65 | 110 | 7.0 | 9.0 | 0.00 | 0.00 | 0.00 | 83 | 1018.2 |
| 20260831015537 | 65 | 107 | 6.0 | 11.0 | 0.00 | 0.00 | 0.00 | 84 | 1018.3 |
| 20260831015035 | 65 | 91 | 8.0 | 13.0 | 0.00 | 0.00 | 0.00 | 83 | 1018.3 |
| 20260831014545 | 65 | 96 | 9.0 | 13.0 | 0.00 | 0.00 | 0.00 | 84 | 1018.4 |
| 20260831014034 | 65 | 114 | 7.0 | 10.0 | 0.00 | 0.00 | 0.00 | 85 | 1018.4 |
| 20260831013534 | 65 | 118 | 7.0 | 10.0 | 0.00 | 0.00 | 0.00 | 85 | 1018.5 |
| 20260831013034 | 65 | 109 | 8.0 | 10.0 | 0.00 | 0.00 | 0.00 | 85 | 1018.5 |
| 20260831012532 | 65 | 117 | 6.0 | 8.0 | 0.00 | 0.00 | 0.00 | 85 | 1018.4 |
| 20260831012030 | 65 | 103 | 6.0 | 8.0 | 0.00 | 0.00 | 0.00 | 85 | 1018.4 |
| 20260831011531 | 65 | 127 | 6.0 | 8.0 | 0.00 | 0.00 | 0.00 | 85 | 1018.3 |
| 20260831011030 | 66 | 123 | 5.0 | 8.0 | 0.00 | 0.00 | 0.00 | 85 | 1018.3 |
| 20260831010528 | 66 | 118 | 6.0 | 8.0 | 0.00 | 0.00 | 0.00 | 85 | 1018.4 |
| 20260831010040 | 66 | 109 | 6.0 | 8.0 | 0.00 | 0.00 | 0.00 | 85 | 1018.5 |
| 20260831005526 | 66 | 111 | 5.0 | 7.0 | 0.00 | 0.00 | 0.00 | 85 | 1018.6 |
| 20260831005025 | 66 | 120 | 4.0 | 7.0 | 0.00 | 0.00 | 0.00 | 84 | 1018.8 |
| 20260831004524 | 67 | 109 | 4.0 | 7.0 | 0.00 | 0.00 | 0.00 | 85 | 1018.8 |
| 20260831004023 | 67 | 115 | 4.0 | 6.0 | 0.00 | 0.00 | 0.00 | 85 | 1018.8 |
| 20260831003528 | 67 | 110 | 4.0 | 6.0 | 0.00 | 0.00 | 0.00 | 85 | 1018.9 |
| 20260831003022 | 67 | 117 | 3.0 | 8.0 | 0.00 | 0.00 | 0.00 | 84 | 1018.9 |
| 20260831002522 | 67 | 127 | 5.0 | 8.0 | 0.00 | 0.00 | 0.00 | 84 | 1019.0 |
| 20260831002020 | 67 | 126 | 5.0 | 8.0 | 0.00 | 0.00 | 0.00 | 84 | 1019.0 |
| 20260831001533 | 67 | 128 | 5.0 | 7.0 | 0.00 | 0.00 | 0.00 | 85 | 1019.1 |
| 20260831001019 | 67 | 117 | 4.0 | 7.0 | 0.00 | 0.00 | 0.00 | 85 | 1019.2 |
| 20260831000519 | 67 | 101 | 3.0 | 6.0 | 0.00 | 0.00 | 0.00 | 86 | 1019.2 |
| 20260831000018 | 67 | 112 | 2.0 | 4.0 | 0.00 | 0.00 | 0.00 | 86 | 1019.1 |
| 20260830235521 | 67 | 117 | 1.0 | 4.0 | 0.00 | 0.00 | 0.00 | 86 | 1019.1 |
| 20260830235018 | 67 | 123 | 2.0 | 6.0 | 0.00 | 0.00 | 0.00 | 86 | 1019.2 |
| 20260830234535 | 67 | 123 | 2.0 | 6.0 | 0.00 | 0.00 | 0.00 | 87 | 1019.1 |